sat.trackr.live / text

‹ back to catalog

MESAT1

NORAD 60209 · 2024-125G

PAYLOAD ACTIVE UNKNOWN

§ Identity

Operator
Country
US
Launch date
2024-07-04
Launch site
AFWTR
Launch vehicle
Mass (kg)
RCS (m²)

Purposes: comms

External: N2YO · Heavens-Above · Gunter

§ Orbital elements

Epoch: 2026-09-19T20:54:01.492704Z

Period
91.35 min
Inclination
97.2102°
Eccentricity
0.0006378
Mean motion
15.76354522 rev/d
Perigee alt
336.5 km
Apogee alt
345.1 km
Semi-major
6,718.9 km
B*
5.8455e-4
RAAN
123.2702°
Arg perigee
200.2657°
Mean anomaly
159.8357°
Rev number
12,441

§ Raw data

MESAT11 60209U 24125G   26262.87085061  .00092687  00000+0  58455-3 0  99952 60209  97.2102 123.2702 0006378 200.2657 159.8357 15.76354522124413

JSON: /api/v1/satellites/60209 · /tle

For live sub-satellite position, see the globe view (requires WebGL).

§ Visibility from observer

Set your observer location to see the next 7 days of passes ≥ 10°. The values pass through the URL so the page stays shareable.

No JS? Fill the form by hand. The geolocation button needs JavaScript.

§ Radio — SatNOGS DB

ModeDescriptionDownlinkUplink
BPSK GlobalStar EyeStar 2M32G1D 1.616 GHz
BPSK UHF TLM 1k2 BPSK 435.800 MHz
USB Mode V/U - SSB - Transponder (inactive) 435.810 MHz–435.840 MHz 145.910 MHz–145.940 MHz

3 transmitters · refreshed weekly from db.satnogs.org